TimeCDT,TemperatureF,Dew PointF,Humidity,Sea Level PressureIn,VisibilityMPH,Wind Direction,Wind SpeedMPH,Gust SpeedMPH,PrecipitationIn,Events,Conditions,WindDirDegrees,DateUTC
12:15 AM,64.4,62.6,94,29.95,10.0,North,5.8,-,N/A,,Light Drizzle,10,2012-09-30 05:15:00
12:55 AM,64.4,62.6,94,29.94,3.0,NNE,4.6,-,0.15,Rain,Heavy Rain,20,2012-09-30 05:55:00
1:15 AM,64.4,64.4,100,29.94,5.0,NNW,3.5,-,0.03,Rain,Rain,330,2012-09-30 06:15:00
1:35 AM,64.4,62.6,94,29.94,3.0,Calm,Calm,-,0.09,Rain,Heavy Rain,0,2012-09-30 06:35:00
1:55 AM,64.4,64.4,100,29.94,5.0,Calm,Calm,-,0.14,Rain,Rain,0,2012-09-30 06:55:00
2:15 AM,64.4,64.4,100,29.94,5.0,Calm,Calm,-,0.02,Rain,Light Rain,0,2012-09-30 07:15:00
2:35 AM,64.4,64.4,100,29.93,7.0,North,4.6,-,0.02,,Drizzle,350,2012-09-30 07:35:00
2:55 AM,64.4,64.4,100,29.93,10.0,North,3.5,-,0.02,,Light Drizzle,360,2012-09-30 07:55:00
3:15 AM,64.4,62.6,94,29.92,10.0,North,5.8,-,N/A,,Light Drizzle,360,2012-09-30 08:15:00
3:35 AM,64.4,64.4,100,29.91,7.0,NNW,5.8,-,0.01,Rain,Light Rain,340,2012-09-30 08:35:00
3:55 AM,64.4,64.4,100,29.91,10.0,NNW,4.6,-,0.01,Rain,Light Rain,340,2012-09-30 08:55:00
4:15 AM,64.4,64.4,100,29.91,10.0,North,4.6,-,N/A,,Light Drizzle,10,2012-09-30 09:15:00
4:35 AM,64.4,64.4,100,29.91,7.0,North,4.6,-,N/A,Rain,Light Rain,360,2012-09-30 09:35:00
4:55 AM,64.4,64.4,100,29.91,7.0,North,4.6,-,0.01,Rain,Light Rain,360,2012-09-30 09:55:00
5:15 AM,64.4,64.4,100,29.90,7.0,NNE,5.8,-,N/A,Rain,Rain,20,2012-09-30 10:15:00
5:35 AM,64.4,64.4,100,29.91,7.0,NE,5.8,-,N/A,Rain,Light Rain,40,2012-09-30 10:35:00
5:55 AM,64.4,62.6,94,29.91,10.0,North,5.8,-,0.01,,Drizzle,10,2012-09-30 10:55:00
6:15 AM,64.4,62.6,94,29.91,10.0,North,4.6,-,N/A,Rain,Light Rain,10,2012-09-30 11:15:00
6:35 AM,64.4,64.4,100,29.90,7.0,North,3.5,-,0.01,Rain,Light Rain,360,2012-09-30 11:35:00
6:55 AM,64.4,64.4,100,29.91,7.0,North,5.8,-,N/A,Rain,Light Rain,360,2012-09-30 11:55:00
7:55 AM,64.4,64.4,100,29.90,7.0,North,5.8,-,N/A,Rain,Light Rain,360,2012-09-30 12:55:00
8:55 AM,66.2,66.2,100,29.93,10.0,Calm,Calm,-,N/A,,Light Drizzle,0,2012-09-30 13:55:00
3:55 PM,73.4,60.8,65,29.87,10.0,ENE,6.9,-,N/A,,Clear,60,2012-09-30 20:55:00
11:35 PM,59.0,59.0,100,29.89,7.0,Calm,Calm,-,N/A,,Clear,0,2012-10-01 04:35:00
11:55 PM,59.0,59.0,100,29.88,10.0,Calm,Calm,-,N/A,,Clear,0,2012-10-01 04:55:00